Precipitable_Water
1.29 1.39 1.38 1.10 0.63 0.61 0.47 0.53 0.74 0.65 0.67 0.68 0.65 0.57 0.52 0.53 0.51 0.47 0.58 0.55 0.54 0.54 0.51 0.51 0.62 0.65 0.65 0.65 0.65 0.65 0.64 0.68 0.73 0.75 0.77 0.77 0.77 0.77 0.74 0.73 0.74 0.75 0.77 0.79 0.82 0.89 0.91 0.87 0.86
1.07 1.10 0.99 0.86 0.48 0.35 0.39 0.59 0.59 0.65 0.69 0.68 0.60 0.55 0.48 0.44 0.51 0.51 0.48 0.48 0.47 0.46 0.45 0.46 0.57 0.55 0.54 0.54 0.57 0.61 0.65 0.74 0.72 0.76 0.74 0.73 0.73 0.77 0.79 0.75 0.72 0.75 0.75 0.73 0.71 0.73 0.81 0.87 0.84
1.01 0.99 0.74 0.59 0.44 0.33 0.35 0.55 0.60 0.65 0.68 0.62 0.52 0.50 0.44 0.43 0.45 0.41 0.43 0.44 0.42 0.39 0.38 0.40 0.48 0.47 0.48 0.51 0.56 0.62 0.68 0.74 0.73 0.67 0.71 0.67 0.67 0.72 0.71 0.67 0.68 0.68 0.69 0.73 0.72 0.70 0.75 0.78 0.84
0.80 0.77 0.65 0.44 0.36 0.41 0.50 0.55 0.57 0.57 0.56 0.54 0.46 0.38 0.39 0.40 0.36 0.38 0.40 0.37 0.34 0.35 0.35 0.34 0.41 0.43 0.45 0.47 0.50 0.55 0.59 0.60 0.58 0.61 0.61 0.58 0.58 0.59 0.54 0.58 0.55 0.59 0.59 0.68 0.72 0.74 0.72 0.73 0.77
0.73 0.58 0.36 0.32 0.32 0.40 0.52 0.54 0.55 0.48 0.42 0.40 0.41 0.36 0.35 0.37 0.38 0.36 0.32 0.32 0.30 0.30 0.30 0.29 0.35 0.39 0.43 0.44 0.47 0.49 0.53 0.52 0.54 0.54 0.51 0.50 0.51 0.50 0.50 0.51 0.55 0.53 0.59 0.60 0.61 0.73 0.76 0.75 0.74
0.48 0.51 0.28 0.25 0.31 0.40 0.46 0.50 0.49 0.43 0.37 0.35 0.35 0.34 0.32 0.34 0.30 0.30 0.30 0.28 0.29 0.26 0.27 0.28 0.33 0.37 0.36 0.36 0.40 0.47 0.46 0.47 0.48 0.47 0.47 0.48 0.49 0.47 0.50 0.51 0.54 0.55 0.61 0.61 0.60 0.59 0.69 0.77 0.74
0.45 0.43 0.31 0.32 0.32 0.35 0.41 0.47 0.44 0.39 0.32 0.32 0.33 0.28 0.28 0.26 0.26 0.27 0.27 0.26 0.24 0.26 0.28 0.32 0.32 0.31 0.30 0.32 0.39 0.41 0.43 0.46 0.46 0.46 0.46 0.48 0.46 0.43 0.45 0.49 0.51 0.56 0.60 0.60 0.59 0.59 0.59 0.64 0.69
0.47 0.41 0.28 0.29 0.29 0.32 0.41 0.40 0.39 0.33 0.30 0.32 0.32 0.23 0.20 0.22 0.23 0.24 0.22 0.21 0.24 0.29 0.32 0.30 0.30 0.29 0.29 0.29 0.33 0.37 0.40 0.42 0.43 0.44 0.46 0.46 0.41 0.38 0.38 0.43 0.46 0.50 0.54 0.55 0.56 0.57 0.57 0.54 0.57
0.53 0.31 0.26 0.31 0.33 0.34 0.37 0.34 0.33 0.33 0.29 0.27 0.25 0.23 0.22 0.21 0.21 0.18 0.17 0.20 0.26 0.29 0.28 0.29 0.29 0.28 0.29 0.30 0.31 0.33 0.37 0.40 0.42 0.41 0.38 0.34 0.33 0.34 0.38 0.42 0.43 0.45 0.48 0.49 0.48 0.50 0.53 0.55 0.51
0.36 0.29 0.29 0.38 0.37 0.33 0.31 0.30 0.29 0.26 0.23 0.22 0.21 0.22 0.20 0.18 0.15 0.14 0.16 0.20 0.26 0.25 0.27 0.29 0.28 0.28 0.29 0.30 0.32 0.35 0.38 0.38 0.35 0.33 0.33 0.33 0.34 0.36 0.39 0.39 0.39 0.39 0.42 0.45 0.44 0.45 0.46 0.44 0.42
0.30 0.24 0.30 0.32 0.32 0.30 0.27 0.26 0.26 0.22 0.20 0.20 0.18 0.18 0.15 0.13 0.14 0.15 0.18 0.24 0.27 0.25 0.27 0.28 0.28 0.29 0.29 0.30 0.34 0.36 0.36 0.34 0.33 0.31 0.31 0.31 0.31 0.32 0.33 0.34 0.33 0.34 0.37 0.37 0.39 0.41 0.41 0.42 0.42
0.22 0.28 0.28 0.27 0.27 0.25 0.23 0.23 0.21 0.21 0.19 0.20 0.19 0.17 0.12 0.12 0.14 0.16 0.19 0.28 0.25 0.25 0.26 0.28 0.29 0.29 0.31 0.34 0.35 0.34 0.33 0.33 0.30 0.31 0.32 0.31 0.29 0.28 0.30 0.32 0.32 0.33 0.36 0.35 0.38 0.38 0.40 0.40 0.42
0.23 0.24 0.26 0.26 0.25 0.23 0.23 0.20 0.19 0.18 0.19 0.20 0.18 0.14 0.12 0.13 0.14 0.17 0.22 0.31 0.26 0.24 0.26 0.27 0.29 0.31 0.33 0.35 0.34 0.32 0.31 0.30 0.31 0.32 0.32 0.30 0.27 0.27 0.30 0.32 0.33 0.33 0.36 0.35 0.35 0.37 0.39 0.40 0.40
0.25 0.24 0.23 0.24 0.24 0.23 0.20 0.17 0.17 0.17 0.20 0.18 0.15 0.13 0.14 0.14 0.14 0.17 0.23 0.29 0.26 0.26 0.27 0.28 0.30 0.33 0.35 0.35 0.33 0.32 0.31 0.31 0.31 0.32 0.30 0.28 0.28 0.28 0.30 0.31 0.33 0.34 0.36 0.38 0.39 0.38 0.39 0.41 0.42
0.26 0.20 0.21 0.22 0.22 0.21 0.21 0.16 0.16 0.18 0.19 0.16 0.14 0.14 0.15 0.15 0.15 0.17 0.27 0.29 0.27 0.26 0.28 0.27 0.31 0.35 0.36 0.35 0.32 0.32 0.32 0.31 0.30 0.30 0.31 0.29 0.29 0.30 0.32 0.35 0.38 0.41 0.43 0.43 0.43 0.40 0.42 0.42 0.43
0.20 0.19 0.14 0.19 0.20 0.21 0.20 0.13 0.17 0.18 0.18 0.16 0.14 0.14 0.14 0.15 0.15 0.19 0.31 0.31 0.28 0.27 0.26 0.28 0.33 0.36 0.37 0.33 0.32 0.32 0.33 0.32 0.31 0.31 0.32 0.33 0.33 0.34 0.36 0.40 0.42 0.44 0.45 0.44 0.43 0.41 0.39 0.40 0.41
0.19 0.12 0.14 0.16 0.20 0.19 0.19 0.16 0.19 0.18 0.19 0.17 0.15 0.14 0.14 0.13 0.15 0.21 0.33 0.31 0.27 0.26 0.26 0.29 0.35 0.37 0.36 0.33 0.32 0.32 0.32 0.32 0.32 0.33 0.33 0.34 0.35 0.38 0.40 0.41 0.43 0.45 0.46 0.45 0.44 0.42 0.41 0.39 0.41
0.11 0.11 0.14 0.14 0.18 0.18 0.17 0.16 0.18 0.18 0.18 0.17 0.16 0.15 0.13 0.12 0.15 0.22 0.35 0.29 0.25 0.26 0.29 0.33 0.36 0.38 0.35 0.33 0.32 0.32 0.31 0.30 0.31 0.32 0.33 0.35 0.37 0.41 0.41 0.44 0.46 0.48 0.47 0.46 0.44 0.40 0.39 0.41 0.43
0.15 0.13 0.13 0.16 0.19 0.17 0.16 0.15 0.17 0.18 0.18 0.17 0.16 0.14 0.12 0.12 0.19 0.26 0.35 0.27 0.24 0.26 0.29 0.34 0.36 0.35 0.33 0.31 0.28 0.27 0.26 0.27 0.29 0.32 0.34 0.36 0.39 0.42 0.42 0.44 0.48 0.50 0.48 0.47 0.44 0.42 0.39 0.42 0.48
0.14 0.13 0.12 0.14 0.18 0.17 0.16 0.14 0.17 0.17 0.17 0.17 0.16 0.13 0.12 0.12 0.18 0.26 0.31 0.24 0.22 0.26 0.31 0.34 0.36 0.33 0.33 0.33 0.31 0.30 0.27 0.28 0.31 0.34 0.35 0.38 0.40 0.42 0.42 0.48 0.49 0.51 0.49 0.51 0.48 0.44 0.43 0.47 0.51
0.14 0.13 0.12 0.11 0.14 0.18 0.15 0.12 0.13 0.16 0.17 0.16 0.16 0.13 0.12 0.13 0.17 0.26 0.26 0.21 0.23 0.27 0.30 0.34 0.34 0.33 0.34 0.34 0.32 0.29 0.28 0.28 0.30 0.33 0.35 0.38 0.40 0.41 0.45 0.51 0.53 0.51 0.51 0.49 0.50 0.51 0.50 0.45 0.50
0.12 0.16 0.14 0.13 0.13 0.11 0.16 0.07 0.12 0.14 0.14 0.14 0.14 0.12 0.11 0.13 0.20 0.27 0.23 0.20 0.24 0.28 0.32 0.34 0.34 0.32 0.33 0.34 0.29 0.27 0.27 0.27 0.32 0.34 0.37 0.38 0.37 0.39 0.46 0.52 0.53 0.53 0.51 0.52 0.53 0.55 0.54 0.53 0.48
0.14 0.17 0.16 0.14 0.14 0.15 0.13 0.09 0.11 0.13 0.12 0.13 0.13 0.11 0.11 0.13 0.22 0.24 0.22 0.21 0.27 0.29 0.32 0.33 0.32 0.31 0.33 0.31 0.30 0.29 0.28 0.32 0.33 0.35 0.36 0.35 0.33 0.38 0.44 0.51 0.49 0.52 0.51 0.52 0.56 0.56 0.56 0.56 0.53
0.19 0.17 0.17 0.16 0.15 0.10 0.12 0.10 0.09 0.10 0.11 0.12 0.12 0.11 0.09 0.15 0.23 0.24 0.22 0.24 0.27 0.30 0.32 0.32 0.30 0.30 0.31 0.29 0.30 0.30 0.31 0.32 0.32 0.34 0.35 0.35 0.35 0.37 0.41 0.48 0.49 0.49 0.52 0.53 0.54 0.56 0.58 0.57 0.55
0.17 0.15 0.10 0.08 0.08 0.08 0.14 0.09 0.10 0.12 0.13 0.12 0.10 0.09 0.09 0.16 0.22 0.22 0.19 0.23 0.26 0.28 0.30 0.31 0.29 0.27 0.28 0.29 0.29 0.31 0.33 0.34 0.33 0.35 0.36 0.36 0.34 0.36 0.37 0.41 0.45 0.47 0.48 0.51 0.53 0.51 0.54 0.55 0.54
0.16 0.16 0.12 0.08 0.07 0.08 0.12 0.07 0.09 0.14 0.14 0.12 0.10 0.09 0.10 0.16 0.21 0.21 0.19 0.24 0.26 0.28 0.29 0.29 0.27 0.25 0.27 0.28 0.29 0.32 0.33 0.35 0.36 0.36 0.37 0.38 0.36 0.39 0.40 0.40 0.43 0.46 0.48 0.48 0.51 0.51 0.51 0.54 0.54
0.15 0.14 0.16 0.13 0.13 0.10 0.11 0.11 0.13 0.13 0.12 0.11 0.09 0.09 0.09 0.15 0.20 0.20 0.20 0.24 0.26 0.27 0.29 0.28 0.26 0.25 0.27 0.27 0.30 0.32 0.33 0.34 0.35 0.36 0.38 0.39 0.40 0.41 0.43 0.43 0.41 0.42 0.42 0.44 0.47 0.48 0.49 0.50 0.50
0.16 0.18 0.13 0.15 0.10 0.08 0.09 0.09 0.08 0.11 0.11 0.11 0.09 0.08 0.09 0.15 0.19 0.20 0.20 0.24 0.26 0.28 0.30 0.28 0.26 0.24 0.27 0.27 0.29 0.31 0.32 0.34 0.35 0.36 0.37 0.38 0.39 0.41 0.44 0.46 0.44 0.41 0.41 0.37 0.37 0.39 0.42 0.43 0.47
0.15 0.15 0.16 0.16 0.14 0.11 0.09 0.09 0.13 0.12 0.12 0.11 0.09 0.08 0.09 0.14 0.18 0.19 0.21 0.24 0.25 0.28 0.29 0.27 0.25 0.25 0.26 0.27 0.28 0.29 0.31 0.33 0.34 0.35 0.37 0.38 0.38 0.38 0.42 0.47 0.48 0.46 0.42 0.40 0.36 0.34 0.34 0.34 0.36
0.19 0.18 0.17 0.13 0.13 0.15 0.13 0.11 0.16 0.14 0.14 0.12 0.10 0.09 0.09 0.14 0.18 0.19 0.21 0.23 0.24 0.26 0.29 0.26 0.24 0.25 0.27 0.27 0.27 0.28 0.30 0.32 0.32 0.34 0.36 0.37 0.37 0.38 0.39 0.44 0.50 0.49 0.48 0.45 0.40 0.38 0.37 0.34 0.32
Wind_Speed
8 8 6 4 4 4 5 7 7 7 6 8 9 8 8 11 13 13 14 17 18 19 21 23 24 25 27 29 30 30 30 30 30 30 29 30 30 30 31 32 33 33 34 34 35 35 35 35 35
2 3 4 5 4 4 7 7 6 8 6 7 10 11 12 12 13 14 16 19 18 19 22 24 25 27 28 30 30 30 30 30 30 30 30 30 31 31 31 32 32 33 35 36 37 38 38 38 38
2 3 3 3 4 5 6 6 6 6 8 11 11 12 12 13 14 15 18 17 18 20 23 25 27 29 30 31 32 32 31 31 31 31 31 32 32 32 33 33 34 34 35 36 37 39 39 40 40
2 3 3 4 5 7 7 5 6 7 10 11 11 12 12 13 14 15 16 17 20 22 25 27 29 31 32 33 33 32 32 32 33 32 32 33 34 34 34 34 35 35 35 36 36 38 40 41 42
3 3 4 5 6 7 8 7 9 9 10 12 12 11 11 13 13 14 17 20 22 24 27 30 32 33 33 33 32 32 31 32 31 31 32 32 33 33 34 34 34 35 36 36 38 38 39 41 43
3 3 4 5 6 6 7 8 8 10 10 11 10 10 12 13 14 17 19 22 25 27 30 31 32 31 31 31 30 29 30 30 29 30 30 31 32 32 33 34 34 35 35 36 37 39 39 39 41
2 4 5 5 4 6 7 7 8 9 10 11 10 11 12 14 16 19 22 25 27 29 30 30 29 29 28 28 27 27 27 27 28 28 29 30 31 32 33 33 33 34 35 35 36 37 40 41 41
4 4 5 5 5 7 7 8 8 10 10 10 11 11 13 15 17 20 24 27 28 30 29 28 27 27 27 26 26 26 26 26 27 27 28 29 30 31 31 31 32 34 35 36 36 37 38 41 43
5 5 5 5 5 7 6 7 9 10 9 11 12 12 13 15 19 23 27 29 29 28 27 26 26 26 25 25 25 25 24 25 25 26 28 29 29 30 30 30 32 33 34 35 36 37 38 39 40
6 6 6 8 6 6 6 7 7 8 9 11 12 12 13 17 22 26 28 28 27 27 26 26 25 24 24 24 23 22 22 23 24 25 26 27 28 29 30 31 32 33 34 34 36 37 38 39 40
7 6 6 9 7 5 6 7 8 7 11 11 11 12 15 20 25 28 28 28 27 26 25 24 23 22 22 21 20 20 21 22 24 25 26 27 29 30 32 33 34 34 35 36 36 37 38 39 40
6 8 7 6 6 7 6 7 8 10 10 9 11 13 17 22 27 28 28 28 27 24 22 20 20 19 19 19 20 21 22 23 25 26 27 29 31 33 34 34 35 36 37 37 37 39 39 39 40
7 7 8 6 6 7 6 8 8 8 9 10 12 14 19 24 28 28 28 26 23 20 18 18 17 17 19 20 21 22 23 24 25 27 29 32 33 35 36 36 37 38 39 40 40 41 41 42 41
7 7 6 7 7 7 7 8 9 9 10 12 12 16 21 26 30 28 26 22 17 15 16 17 16 18 19 20 21 22 23 24 26 28 31 34 36 37 37 38 39 39 40 42 42 43 43 43 43
6 8 9 8 8 8 7 9 9 8 10 12 15 18 23 28 30 26 22 16 14 15 16 15 16 19 19 21 21 21 23 25 28 30 33 36 37 38 39 39 40 40 41 42 42 43 43 43 44
8 8 10 9 7 8 9 10 9 9 11 13 16 20 24 29 28 22 16 14 15 16 15 15 17 19 20 21 21 22 24 28 30 33 35 37 39 40 40 40 40 40 40 40 41 41 41 42 43
9 9 10 10 7 7 8 10 10 10 12 14 17 20 25 29 24 17 15 15 15 14 14 16 17 19 20 21 22 24 26 29 32 34 36 38 41 41 41 38 37 37 36 35 35 35 35 36 37
8 10 10 11 8 7 8 11 11 11 12 15 18 21 25 27 19 15 15 14 13 14 15 16 18 19 20 21 23 25 27 31 32 33 35 38 40 40 37 35 34 35 34 33 32 30 28 28 28
9 10 12 10 8 7 8 10 11 11 13 15 18 21 25 25 16 15 15 13 13 15 16 17 18 19 21 22 24 26 28 29 30 33 35 38 39 39 33 33 33 32 29 28 26 24 22 21 22
9 11 12 10 8 7 9 11 12 11 14 15 18 21 25 21 15 15 13 13 14 15 16 17 18 20 21 23 24 25 28 28 29 32 36 38 39 37 29 31 32 28 26 24 22 19 17 17 18
10 11 12 10 10 9 11 10 11 11 14 16 19 22 24 18 14 14 12 13 14 16 16 17 19 20 21 23 24 26 27 28 29 32 35 37 38 35 27 29 30 25 25 24 21 18 16 17 16
10 11 12 10 9 9 10 10 11 12 14 17 19 22 22 17 14 12 11 13 14 15 16 16 19 20 22 23 24 26 27 27 29 32 36 36 37 33 24 27 28 25 24 24 22 18 17 16 14
9 12 13 10 8 9 9 9 11 14 16 18 19 22 21 15 13 10 11 13 14 15 15 17 18 20 21 23 24 26 27 27 29 32 35 35 35 32 25 25 25 25 23 23 22 21 18 15 13
9 11 14 11 8 9 9 9 11 13 16 18 19 21 20 14 12 10 11 13 13 14 15 17 18 20 21 22 24 26 27 28 29 32 35 35 34 32 28 24 23 23 23 23 22 21 19 17 14
9 12 13 12 11 7 8 9 12 14 16 18 18 19 18 14 12 9 11 12 13 14 15 17 18 19 21 22 24 25 26 27 29 31 33 34 33 32 31 27 22 21 21 20 21 20 19 18 15
8 9 9 11 11 10 10 9 12 14 15 18 19 20 16 15 13 9 10 11 12 13 14 16 18 19 20 22 24 25 26 27 28 31 32 34 33 32 32 29 26 23 20 20 19 18 17 17 15
6 9 9 11 12 10 9 11 12 13 15 17 18 18 16 15 13 10 10 10 12 12 13 15 17 18 20 21 23 25 26 26 28 29 31 32 33 33 33 32 28 26 24 20 18 16 16 15 14
5 5 9 12 11 11 10 11 10 12 14 16 17 16 15 15 14 12 9 10 11 11 13 15 16 17 19 20 22 24 25 26 27 28 30 31 32 32 33 33 32 29 27 25 20 17 16 16 15
5 6 8 9 9 9 12 10 9 11 12 13 15 16 15 15 14 12 10 10 10 11 12 14 15 17 19 20 21 23 25 25 27 28 29 29 31 31 32 33 33 33 30 27 24 21 19 17 16
5 5 5 7 9 11 10 11 10 11 12 13 15 15 15 14 13 13 12 10 10 10 11 13 14 16 18 19 21 22 24 25 26 27 28 29 30 31 31 32 33 33 32 30 27 25 22 20 19
Wind_Direction
271 253 263 274 276 293 288 290 288 292 297 305 308 310 303 303 300 292 295 302 301 299 301 302 303 302 302 302 302 300 299 298 297 296 294 293 291 289 286 283 280 277 274 272 269 267 265 262 261
253 234 262 274 281 288 286 286 291 295 280 288 307 306 309 301 301 297 299 304 303 303 304 305 305 305 304 304 302 301 300 298 297 295 294 293 291 289 287 285 282 280 276 272 269 267 264 262 260
259 270 271 283 287 281 283 288 288 298 293 296 300 309 303 301 303 300 305 305 307 308 308 307 306 306 305 304 302 300 299 298 296 295 294 293 291 290 288 285 283 280 278 275 271 267 264 262 261
276 293 301 293 297 303 296 285 292 289 304 309 303 311 307 306 303 306 307 308 309 309 310 308 307 307 306 305 303 300 298 297 296 294 294 293 291 290 288 285 283 281 278 275 274 270 265 262 260
302 294 306 308 301 305 307 296 298 302 305 309 304 302 306 309 310 311 310 311 310 310 310 310 308 307 307 306 303 302 300 299 298 297 296 295 293 292 289 287 285 282 280 276 273 271 268 264 260
320 309 319 293 296 304 307 304 303 312 312 310 314 310 308 311 313 312 312 312 312 311 311 311 310 309 309 307 306 304 302 301 299 298 298 297 295 294 292 289 286 284 281 279 275 271 269 267 263
335 327 318 313 301 303 298 306 311 311 312 316 307 311 309 313 313 314 315 315 314 313 313 312 312 312 311 310 308 307 306 303 302 301 301 300 298 296 294 291 289 286 283 280 278 275 269 266 264
345 340 332 321 299 305 299 308 310 316 314 313 311 306 308 310 314 316 317 316 316 315 315 315 314 314 314 312 311 309 307 306 305 304 303 303 301 300 297 294 291 289 286 283 281 277 273 268 264
337 344 328 314 311 310 295 307 315 317 316 317 316 315 314 316 318 320 320 319 317 316 316 315 315 315 315 314 313 312 310 310 310 309 308 307 306 303 300 297 295 292 288 284 283 280 275 272 268
350 343 328 323 319 316 316 313 310 318 320 320 319 320 320 323 324 323 321 319 318 317 315 316 316 316 317 317 317 318 317 317 316 316 315 313 312 309 305 302 299 296 292 287 285 282 278 274 270
346 341 334 335 337 336 327 324 319 318 318 312 313 318 322 326 326 325 322 320 318 317 316 317 318 320 321 322 323 323 322 321 320 319 318 316 314 311 307 304 301 298 294 291 286 283 280 276 272
356 348 340 336 340 339 330 327 325 318 320 322 324 323 326 328 327 325 323 321 319 317 318 321 322 326 328 327 326 326 324 323 322 322 321 318 316 312 308 304 302 298 295 292 287 284 281 278 274
357 343 349 349 349 343 336 330 324 327 330 330 330 329 329 329 329 325 323 321 320 322 324 326 327 329 330 329 328 328 327 326 325 324 323 321 318 315 311 306 303 299 295 292 288 285 281 277 274
352 4 359 342 336 334 336 329 329 319 329 332 330 329 330 331 331 328 327 326 329 329 331 330 330 332 331 331 330 330 331 331 329 327 326 324 321 317 314 309 305 301 297 292 289 285 281 277 273
7 358 349 336 326 327 332 328 323 327 333 334 331 330 332 334 335 332 332 335 336 335 333 333 332 334 333 333 332 332 333 333 332 330 329 327 325 321 316 312 308 304 300 295 290 286 281 276 271
355 354 345 331 322 320 331 323 323 325 330 329 329 331 333 336 337 336 340 339 336 335 336 336 335 336 336 336 335 333 332 332 331 331 330 329 327 325 320 315 312 307 304 300 294 288 283 278 271
351 339 339 336 311 327 323 327 323 323 328 328 330 332 335 338 337 339 339 337 338 341 341 339 338 338 338 338 337 335 334 333 332 331 331 331 330 327 323 320 317 313 310 306 302 296 288 283 274
342 341 337 332 323 321 320 315 328 322 327 328 332 334 337 339 338 339 339 339 342 343 342 341 341 341 341 340 339 338 337 337 337 336 336 336 334 332 329 327 324 320 315 309 306 301 294 288 280
350 345 340 339 338 335 316 322 319 321 328 333 335 335 339 340 338 338 339 341 342 343 344 343 344 345 344 343 342 341 340 341 342 342 342 341 339 337 334 334 332 329 326 322 316 309 302 295 290
345 345 344 345 345 334 336 323 327 326 330 334 335 337 340 341 337 338 340 343 345 344 345 346 347 347 347 347 346 345 345 345 346 347 346 345 344 342 340 342 341 339 338 334 330 322 314 306 299
353 349 349 340 347 338 340 338 345 341 342 342 341 342 344 342 338 340 344 345 346 347 348 349 349 349 350 350 350 350 351 351 351 351 350 349 349 348 346 350 352 351 350 349 343 332 324 317 307
350 355 353 350 355 344 354 339 345 342 340 342 343 344 346 344 342 344 347 349 349 350 352 353 352 353 354 354 356 355 355 355 354 354 354 354 354 354 352 354 357 358 359 360 359 354 341 331 320
354 354 356 353 355 355 350 357 345 351 341 339 342 345 347 346 345 345 348 350 352 354 355 355 356 357 358 360 0 360 0 0 359 359 359 359 359 1 356 357 360 3 3 0 1 358 356 351 343
360 3 3 4 1 358 352 359 344 350 349 351 349 350 351 351 348 349 350 354 355 357 359 359 0 1 2 3 3 4 4 4 5 4 5 4 5 6 2 356 356 360 4 6 7 7 6 5 6
1 6 2 5 2 347 357 358 337 347 351 354 356 355 355 357 355 353 354 356 357 359 1 2 4 4 5 6 7 7 8 8 7 7 8 9 9 8 8 4 356 357 359 2 7 10 15 18 18
356 8 14 357 357 341 349 340 350 353 358 2 3 1 1 2 1 355 357 359 360 2 4 5 6 7 8 9 9 10 10 10 10 10 11 12 12 12 11 9 8 0 353 356 358 3 8 13 16
354 2 3 17 5 0 350 341 351 358 357 360 2 4 2 5 4 1 1 1 3 5 6 7 7 8 9 10 11 11 12 12 12 13 14 15 16 16 16 15 12 9 7 358 357 358 358 3 3
338 354 2 5 7 356 345 341 346 350 347 356 0 2 2 6 8 7 4 3 5 7 8 9 10 11 11 11 12 13 13 14 14 14 15 16 17 19 19 19 19 17 15 14 10 3 3 2 358
327 339 2 7 7 4 356 340 347 349 356 357 360 4 5 8 11 11 8 5 5 8 8 9 11 12 12 13 13 13 14 15 16 16 16 17 18 19 21 21 22 22 22 21 19 18 13 6 4
292 310 335 1 346 358 359 341 353 349 352 359 3 7 10 12 14 15 15 10 7 6 7 8 9 11 12 13 13 14 14 16 16 17 17 18 19 20 21 21 22 23 24 24 23 21 17 15 13